Time,TemperatureF,DewpointF,PressureIn,WindDirection,WindDirectionDegrees,WindSpeedMPH,WindSpeedGustMPH,Humidity,HourlyPrecipIn,Conditions,Clouds,dailyrainin,SoftwareType,DateUTC
2013-03-21 00:12:00,24.7,19.0,29.84,WSW,243,6.0,10.0,78,0.00,,,0.00,weatherlink.com 1.10,2013-03-21 04:12:00,
2013-03-21 00:27:00,24.9,19.0,29.84,SW,228,8.0,12.0,77,0.00,,,0.00,weatherlink.com 1.10,2013-03-21 04:27:00,
2013-03-21 00:42:00,25.0,19.0,29.84,SW,236,9.0,11.0,77,0.00,,,0.00,weatherlink.com 1.10,2013-03-21 04:42:00,
2013-03-21 00:57:00,25.1,19.0,29.84,WSW,247,9.0,11.0,76,0.00,,,0.00,weatherlink.com 1.10,2013-03-21 04:57:00,
2013-03-21 01:12:00,25.1,19.0,29.83,WSW,246,11.0,13.0,76,0.00,,,0.00,weatherlink.com 1.10,2013-03-21 05:12:00,
2013-03-21 01:27:00,25.0,18.0,29.83,WSW,245,9.0,11.0,75,0.00,,,0.00,weatherlink.com 1.10,2013-03-21 05:27:00,
2013-03-21 01:42:00,24.7,18.0,29.83,SW,233,7.0,10.0,76,0.00,,,0.00,weatherlink.com 1.10,2013-03-21 05:42:00,
2013-03-21 01:57:00,24.6,18.0,29.84,SW,231,6.0,9.0,75,0.00,,,0.00,weatherlink.com 1.10,2013-03-21 05:57:00,
2013-03-21 02:12:00,24.2,17.0,29.83,SSW,208,8.0,12.0,75,0.00,,,0.00,weatherlink.com 1.10,2013-03-21 06:12:00,
2013-03-21 02:27:00,23.9,17.0,29.83,WSW,243,6.0,12.0,76,0.00,,,0.00,weatherlink.com 1.10,2013-03-21 06:27:00,
2013-03-21 02:42:00,23.5,17.0,29.82,WSW,238,7.0,8.0,76,0.00,,,0.00,weatherlink.com 1.10,2013-03-21 06:42:00,
2013-03-21 02:57:00,23.1,17.0,29.81,SW,223,8.0,12.0,77,0.00,,,0.00,weatherlink.com 1.10,2013-03-21 06:57:00,
2013-03-21 03:12:00,22.7,17.0,29.81,SW,222,9.0,13.0,79,0.00,,,0.00,weatherlink.com 1.10,2013-03-21 07:12:00,
2013-03-21 03:27:00,22.4,17.0,29.81,SW,226,6.0,10.0,80,0.00,,,0.00,weatherlink.com 1.10,2013-03-21 07:27:00,
2013-03-21 03:42:00,22.0,17.0,29.80,SW,222,5.0,9.0,80,0.00,,,0.00,weatherlink.com 1.10,2013-03-21 07:42:00,
2013-03-21 03:57:00,21.9,17.0,29.80,SW,214,8.0,10.0,81,0.00,,,0.00,weatherlink.com 1.10,2013-03-21 07:57:00,
2013-03-21 04:12:00,21.9,17.0,29.79,SW,222,8.0,10.0,81,0.00,,,0.00,weatherlink.com 1.10,2013-03-21 08:12:00,
2013-03-21 04:27:00,21.6,17.0,29.79,SW,222,8.0,12.0,82,0.00,,,0.00,weatherlink.com 1.10,2013-03-21 08:27:00,
2013-03-21 04:42:00,21.6,17.0,29.79,SW,226,7.0,11.0,82,0.00,,,0.00,weatherlink.com 1.10,2013-03-21 08:42:00,
2013-03-21 04:57:00,21.5,17.0,29.79,SW,223,5.0,9.0,82,0.00,,,0.00,weatherlink.com 1.10,2013-03-21 08:57:00,
2013-03-21 05:12:00,21.4,17.0,29.79,SW,227,5.0,10.0,82,0.00,,,0.00,weatherlink.com 1.10,2013-03-21 09:12:00,
2013-03-21 05:27:00,21.2,17.0,29.78,SW,234,7.0,8.0,82,0.00,,,0.00,weatherlink.com 1.10,2013-03-21 09:27:00,
2013-03-21 05:42:00,21.1,16.0,29.79,SW,224,4.0,8.0,82,0.00,,,0.00,weatherlink.com 1.10,2013-03-21 09:42:00,
2013-03-21 05:57:00,21.0,16.0,29.79,SW,233,5.0,9.0,82,0.00,,,0.00,weatherlink.com 1.10,2013-03-21 09:57:00,
2013-03-21 06:12:00,20.9,16.0,29.79,WSW,240,5.0,9.0,81,0.00,,,0.00,weatherlink.com 1.10,2013-03-21 10:12:00,
2013-03-21 06:27:00,20.8,16.0,29.79,WSW,237,7.0,10.0,80,0.00,,,0.00,weatherlink.com 1.10,2013-03-21 10:27:00,
2013-03-21 06:42:00,20.6,15.0,29.79,SW,224,4.0,8.0,80,0.00,,,0.00,weatherlink.com 1.10,2013-03-21 10:42:00,
2013-03-21 06:57:00,20.5,15.0,29.79,SW,222,5.0,7.0,79,0.00,,,0.00,weatherlink.com 1.10,2013-03-21 10:57:00,
2013-03-21 07:12:00,19.9,15.0,29.79,SW,214,6.0,7.0,81,0.00,,,0.00,weatherlink.com 1.10,2013-03-21 11:12:00,
2013-03-21 07:27:00,20.5,15.0,29.80,SW,228,6.0,9.0,80,0.00,,,0.00,weatherlink.com 1.10,2013-03-21 11:27:00,
2013-03-21 07:42:00,21.2,15.0,29.80,SW,228,6.0,9.0,78,0.00,,,0.00,weatherlink.com 1.10,2013-03-21 11:42:00,
2013-03-21 07:57:00,21.5,16.0,29.80,SW,228,5.0,9.0,78,0.00,,,0.00,weatherlink.com 1.10,2013-03-21 11:57:00,
2013-03-21 08:12:00,21.9,16.0,29.79,WSW,241,9.0,11.0,77,0.00,,,0.00,weatherlink.com 1.10,2013-03-21 12:12:00,
2013-03-21 08:27:00,22.2,15.0,29.78,WSW,239,9.0,14.0,75,0.00,,,0.00,weatherlink.com 1.10,2013-03-21 12:27:00,
2013-03-21 08:42:00,22.8,16.0,29.78,WSW,242,9.0,12.0,75,0.00,,,0.00,weatherlink.com 1.10,2013-03-21 12:42:00,
2013-03-21 08:57:00,23.0,16.0,29.78,WSW,252,14.0,14.0,73,0.00,,,0.00,weatherlink.com 1.10,2013-03-21 12:57:00,
2013-03-21 09:12:00,23.6,15.0,29.78,WSW,240,7.0,14.0,71,0.00,,,0.00,weatherlink.com 1.10,2013-03-21 13:12:00,
2013-03-21 09:28:00,24.0,16.0,29.78,WSW,249,5.0,13.0,70,0.00,,,0.00,weatherlink.com 1.10,2013-03-21 13:28:00,
2013-03-21 09:43:00,24.8,16.0,29.78,WSW,258,8.0,13.0,69,0.00,,,0.00,weatherlink.com 1.10,2013-03-21 13:43:00,
2013-03-21 09:58:00,24.5,15.0,29.78,WSW,245,4.0,15.0,67,0.00,,,0.00,weatherlink.com 1.10,2013-03-21 13:58:00,
2013-03-21 10:13:00,24.7,13.0,29.79,WNW,295,10.0,15.0,61,0.00,,,0.00,weatherlink.com 1.10,2013-03-21 14:13:00,
2013-03-21 10:28:00,25.6,12.0,29.78,West,276,11.0,14.0,57,0.00,,,0.00,weatherlink.com 1.10,2013-03-21 14:28:00,
2013-03-21 10:43:00,25.9,12.0,29.78,WNW,299,13.0,15.0,56,0.00,,,0.00,weatherlink.com 1.10,2013-03-21 14:43:00,
2013-03-21 10:58:00,25.5,12.0,29.78,SW,229,9.0,12.0,58,0.00,,,0.00,weatherlink.com 1.10,2013-03-21 14:58:00,
2013-03-21 11:13:00,25.6,13.0,29.78,West,279,8.0,15.0,58,0.00,,,0.00,weatherlink.com 1.10,2013-03-21 15:13:00,
2013-03-21 11:28:00,25.6,12.0,29.78,West,260,13.0,16.0,57,0.00,,,0.00,weatherlink.com 1.10,2013-03-21 15:28:00,
2013-03-21 11:43:00,25.8,13.0,29.78,SW,233,9.0,17.0,59,0.00,,,0.00,weatherlink.com 1.10,2013-03-21 15:43:00,
2013-03-21 11:58:00,26.7,14.0,29.77,West,278,8.0,16.0,58,0.00,,,0.00,weatherlink.com 1.10,2013-03-21 15:58:00,
2013-03-21 12:13:00,26.9,13.0,29.77,WSW,243,13.0,15.0,57,0.00,,,0.00,weatherlink.com 1.10,2013-03-21 16:13:00,
2013-03-21 12:28:00,27.2,14.0,29.77,WSW,251,5.0,19.0,58,0.00,,,0.00,weatherlink.com 1.10,2013-03-21 16:28:00,
2013-03-21 12:43:00,27.4,13.0,29.77,WSW,249,11.0,19.0,55,0.00,,,0.00,weatherlink.com 1.10,2013-03-21 16:43:00,
2013-03-21 12:58:00,27.5,14.0,29.76,WSW,239,9.0,14.0,56,0.00,,,0.00,weatherlink.com 1.10,2013-03-21 16:58:00,
2013-03-21 13:13:00,26.5,14.0,29.76,West,268,10.0,17.0,60,0.00,,,0.00,weatherlink.com 1.10,2013-03-21 17:13:00,
2013-03-21 13:28:00,27.0,14.0,29.75,WSW,241,13.0,16.0,59,0.00,,,0.00,weatherlink.com 1.10,2013-03-21 17:28:00,
2013-03-21 13:43:00,27.4,14.0,29.75,West,278,8.0,15.0,58,0.00,,,0.00,weatherlink.com 1.10,2013-03-21 17:43:00,
2013-03-21 13:58:00,28.4,14.0,29.74,West,269,15.0,23.0,55,0.00,,,0.00,weatherlink.com 1.10,2013-03-21 17:58:00,
2013-03-21 14:13:00,26.8,13.0,29.74,WSW,247,7.0,14.0,57,0.00,,,0.00,weatherlink.com 1.10,2013-03-21 18:13:00,
2013-03-21 14:28:00,28.2,12.0,29.74,WSW,242,15.0,20.0,52,0.00,,,0.00,weatherlink.com 1.10,2013-03-21 18:28:00,
2013-03-21 14:43:00,27.1,14.0,29.74,WNW,297,7.0,22.0,58,0.00,,,0.00,weatherlink.com 1.10,2013-03-21 18:43:00,
2013-03-21 14:58:00,27.0,15.0,29.73,WSW,258,8.0,15.0,60,0.00,,,0.00,weatherlink.com 1.10,2013-03-21 18:58:00,
2013-03-21 15:13:00,27.2,14.0,29.73,West,261,10.0,15.0,57,0.00,,,0.00,weatherlink.com 1.10,2013-03-21 19:13:00,
2013-03-21 15:28:00,27.4,15.0,29.73,West,264,6.0,16.0,61,0.00,,,0.00,weatherlink.com 1.10,2013-03-21 19:28:00,
2013-03-21 15:43:00,26.5,16.0,29.73,WNW,291,12.0,18.0,66,0.00,,,0.00,weatherlink.com 1.10,2013-03-21 19:43:00,
2013-03-21 15:58:00,26.5,16.0,29.73,WNW,288,6.0,11.0,65,0.00,,,0.00,weatherlink.com 1.10,2013-03-21 19:58:00,
2013-03-21 16:13:00,28.0,14.0,29.73,West,272,7.0,20.0,57,0.00,,,0.00,weatherlink.com 1.10,2013-03-21 20:13:00,
2013-03-21 16:28:00,27.8,15.0,29.73,West,261,10.0,17.0,59,0.00,,,0.00,weatherlink.com 1.10,2013-03-21 20:28:00,
2013-03-21 16:43:00,27.4,15.0,29.73,WSW,245,7.0,15.0,59,0.00,,,0.00,weatherlink.com 1.10,2013-03-21 20:43:00,
2013-03-21 16:58:00,27.9,14.0,29.73,WNW,289,14.0,20.0,55,0.00,,,0.00,weatherlink.com 1.10,2013-03-21 20:58:00,
2013-03-21 17:13:00,28.2,14.0,29.73,WNW,283,12.0,15.0,55,0.00,,,0.00,weatherlink.com 1.10,2013-03-21 21:13:00,
2013-03-21 17:28:00,27.9,14.0,29.73,WNW,287,11.0,16.0,55,0.00,,,0.00,weatherlink.com 1.10,2013-03-21 21:28:00,
2013-03-21 17:43:00,27.9,14.0,29.73,West,272,7.0,18.0,56,0.00,,,0.00,weatherlink.com 1.10,2013-03-21 21:43:00,
2013-03-21 17:58:00,27.7,14.0,29.73,West,264,10.0,12.0,57,0.00,,,0.00,weatherlink.com 1.10,2013-03-21 21:58:00,
2013-03-21 18:13:00,27.8,15.0,29.73,WSW,245,8.0,11.0,58,0.00,,,0.00,weatherlink.com 1.10,2013-03-21 22:13:00,
2013-03-21 18:28:00,27.7,16.0,29.74,WNW,287,12.0,19.0,62,0.00,,,0.00,weatherlink.com 1.10,2013-03-21 22:28:00,
2013-03-21 18:43:00,27.5,17.0,29.74,West,260,9.0,15.0,64,0.00,,,0.00,weatherlink.com 1.10,2013-03-21 22:43:00,
2013-03-21 18:58:00,27.3,18.0,29.73,WSW,257,5.0,14.0,67,0.00,,,0.00,weatherlink.com 1.10,2013-03-21 22:58:00,
2013-03-21 19:13:00,26.9,18.0,29.73,SW,235,7.0,16.0,70,0.00,,,0.00,weatherlink.com 1.10,2013-03-21 23:13:00,
2013-03-21 19:28:00,26.8,19.0,29.73,West,261,9.0,14.0,72,0.00,,,0.00,weatherlink.com 1.10,2013-03-21 23:28:00,
2013-03-21 19:43:00,26.3,19.0,29.73,SW,229,8.0,11.0,75,0.00,,,0.00,weatherlink.com 1.10,2013-03-21 23:43:00,
2013-03-21 19:58:00,26.4,20.0,29.73,WSW,241,4.0,10.0,76,0.00,,,0.00,weatherlink.com 1.10,2013-03-21 23:58:00,
2013-03-21 20:13:00,26.5,20.0,29.73,SW,228,4.0,11.0,77,0.00,,,0.00,weatherlink.com 1.10,2013-03-22 00:13:00,
2013-03-21 20:28:00,26.4,20.0,29.73,WSW,252,9.0,11.0,78,0.00,,,0.00,weatherlink.com 1.10,2013-03-22 00:28:00,
2013-03-21 20:43:00,25.8,21.0,29.73,SW,222,7.0,12.0,82,0.00,,,0.00,weatherlink.com 1.10,2013-03-22 00:43:00,
2013-03-21 20:58:00,25.4,22.0,29.74,WSW,243,4.0,11.0,86,0.00,,,0.00,weatherlink.com 1.10,2013-03-22 00:58:00,
2013-03-21 21:13:00,25.3,22.0,29.73,SW,225,7.0,9.0,88,0.00,,,0.00,weatherlink.com 1.10,2013-03-22 01:13:00,
2013-03-21 21:28:00,25.1,22.0,29.74,SW,228,8.0,10.0,88,0.00,,,0.00,weatherlink.com 1.10,2013-03-22 01:28:00,
2013-03-21 21:44:00,24.9,22.0,29.74,SW,218,6.0,9.0,89,0.00,,,0.00,weatherlink.com 1.10,2013-03-22 01:44:00,
2013-03-21 21:59:00,24.8,22.0,29.74,SW,235,5.0,9.0,89,0.00,,,0.00,weatherlink.com 1.10,2013-03-22 01:59:00,
2013-03-21 22:14:00,24.8,22.0,29.73,SSW,213,7.0,11.0,90,0.00,,,0.00,weatherlink.com 1.10,2013-03-22 02:14:00,
2013-03-21 22:29:00,24.8,23.0,29.73,SW,216,7.0,10.0,91,0.00,,,0.00,weatherlink.com 1.10,2013-03-22 02:29:00,
2013-03-21 22:44:00,24.7,23.0,29.73,SSW,212,7.0,11.0,91,0.00,,,0.00,weatherlink.com 1.10,2013-03-22 02:44:00,
2013-03-21 22:59:00,24.9,23.0,29.73,SW,214,7.0,9.0,91,0.00,,,0.00,weatherlink.com 1.10,2013-03-22 02:59:00,
2013-03-21 23:14:00,25.4,23.0,29.73,SW,214,9.0,9.0,90,0.00,,,0.00,weatherlink.com 1.10,2013-03-22 03:14:00,
2013-03-21 23:29:00,25.6,23.0,29.73,SW,233,8.0,11.0,90,0.00,,,0.00,weatherlink.com 1.10,2013-03-22 03:29:00,
2013-03-21 23:44:00,25.7,23.0,29.72,SW,228,7.0,12.0,90,0.00,,,0.00,weatherlink.com 1.10,2013-03-22 03:44:00,
2013-03-21 23:59:00,25.6,23.0,29.73,SW,232,9.0,13.0,91,0.00,,,0.00,weatherlink.com 1.10,2013-03-22 03:59:00,